Hourly Weather San Miguel de Tucumán

Today, 29 September, Tuesday

Time Temperature Precipitation Wind Pressure Humidity
00:00 +18°C° 0 mm 2 mps 716 mmHg 39%
01:00 +17°C° 0 mm 2 mps 715 mmHg 41%
02:00 +16°C° 0 mm 1 mps 715 mmHg 42%
03:00 +16°C° 0 mm 1 mps 714 mmHg 43%
04:00 +15°C° 0 mm 1 mps 714 mmHg 45%
05:00 +15°C° 0 mm 1 mps 714 mmHg 46%
06:00 +18°C° 0 mm 1 mps 714 mmHg 42%
07:00 +20°C° 0 mm 1 mps 715 mmHg 38%
08:00 +22°C° 0 mm 1 mps 716 mmHg 33%
09:00 +25°C° 0 mm 1 mps 715 mmHg 29%
10:00 +28°C° 0 mm 1 mps 715 mmHg 24%
11:00 +31°C° 0 mm 1 mps 714 mmHg 19%
12:00 +34°C° 0 mm 2 mps 714 mmHg 17%
13:00 +35°C° 0 mm 2 mps 713 mmHg 16%
14:00 +37°C° 0 mm 2 mps 712 mmHg 14%
15:00 +37°C° 0 mm 2 mps 712 mmHg 15%
16:00 +36°C° 0 mm 3 mps 712 mmHg 16%
17:00 +36°C° 0 mm 3 mps 711 mmHg 17%
18:00 +33°C° 0 mm 3 mps 712 mmHg 22%
19:00 +29°C° 0 mm 2 mps 713 mmHg 26%
20:00 +26°C° 0 mm 2 mps 713 mmHg 30%
21:00 +25°C° 0 mm 2 mps 713 mmHg 32%
22:00 +24°C° 0 mm 2 mps 713 mmHg 33%
23:00 +24°C° 0 mm 2 mps 713 mmHg 34%

Tomorrow, 30 September, Wednesday

Time Temperature Precipitation Wind Pressure Humidity
00:00 +23°C° 0 mm 1 mps 713 mmHg 35%
01:00 +22°C° 0 mm 1 mps 713 mmHg 36%
02:00 +22°C° 0 mm 1 mps 713 mmHg 37%
03:00 +21°C° 0 mm 1 mps 713 mmHg 37%
04:00 +21°C° 0 mm 1 mps 713 mmHg 37%
05:00 +21°C° 0 mm 1 mps 713 mmHg 37%
06:00 +23°C° 0 mm 1 mps 713 mmHg 34%
07:00 +25°C° 0 mm 1 mps 714 mmHg 31%
08:00 +26°C° 0 mm 1 mps 714 mmHg 28%
09:00 +30°C° 0 mm 1 mps 714 mmHg 25%
10:00 +34°C° 0 mm 2 mps 714 mmHg 21%
11:00 +37°C° 0 mm 2 mps 714 mmHg 18%
12:00 +38°C° 0 mm 2 mps 713 mmHg 16%
13:00 +40°C° 0 mm 2 mps 712 mmHg 14%
14:00 +42°C° 0 mm 3 mps 712 mmHg 12%
15:00 +40°C° 0 mm 3 mps 711 mmHg 14%
16:00 +40°C° 0 mm 2 mps 711 mmHg 15%
17:00 +39°C° 0 mm 2 mps 710 mmHg 16%
18:00 +36°C° 0 mm 2 mps 711 mmHg 21%
19:00 +32°C° 0 mm 2 mps 711 mmHg 25%
20:00 +29°C° 0 mm 2 mps 712 mmHg 30%
21:00 +28°C° 0 mm 2 mps 712 mmHg 30%
22:00 +28°C° 0 mm 2 mps 712 mmHg 30%
23:00 +27°C° 0 mm 2 mps 712 mmHg 29%

Day after tomorrow, 1 October, Thursday

Time Temperature Precipitation Wind Pressure Humidity
00:00 +27°C° 0 mm 2 mps 712 mmHg 30%
01:00 +26°C° 0 mm 1 mps 712 mmHg 30%
02:00 +26°C° 0 mm 1 mps 711 mmHg 30%
03:00 +26°C° 0 mm 1 mps 712 mmHg 31%
04:00 +25°C° 0 mm 1 mps 712 mmHg 32%
05:00 +25°C° 0 mm 1 mps 712 mmHg 33%
06:00 +26°C° 0 mm 2 mps 713 mmHg 36%
07:00 +27°C° 0 mm 3 mps 714 mmHg 39%
08:00 +28°C° 0 mm 3 mps 715 mmHg 42%
09:00 +30°C° 0 mm 3 mps 715 mmHg 41%
10:00 +31°C° 0 mm 3 mps 715 mmHg 40%
11:00 +34°C° 0 mm 3 mps 715 mmHg 40%
12:00 +35°C° 0 mm 4 mps 714 mmHg 37%
13:00 +36°C° 0 mm 4 mps 714 mmHg 35%
14:00 +37°C° 0 mm 5 mps 713 mmHg 33%
15:00 +36°C° 0 mm 5 mps 713 mmHg 35%
16:00 +35°C° 0 mm 5 mps 713 mmHg 38%
17:00 +34°C° 0 mm 4 mps 713 mmHg 41%
18:00 +30°C° 0 mm 4 mps 714 mmHg 49%
19:00 +27°C° 0 mm 3 mps 715 mmHg 58%
20:00 +24°C° 0 mm 2 mps 715 mmHg 67%
21:00 +23°C° 0 mm 2 mps 716 mmHg 67%
22:00 +21°C° 0 mm 3 mps 717 mmHg 67%
23:00 +20°C° 0 mm 3 mps 717 mmHg 67%

2 October, Friday

Time Temperature Precipitation Wind Pressure Humidity
00:00 +19°C° 0 mm 3 mps 718 mmHg 66%
01:00 +18°C° 0 mm 3 mps 718 mmHg 64%
02:00 +17°C° 0 mm 2 mps 718 mmHg 63%
03:00 +17°C° 0 mm 2 mps 718 mmHg 64%
04:00 +16°C° 0 mm 2 mps 719 mmHg 65%
05:00 +15°C° 0 mm 2 mps 719 mmHg 66%
06:00 +15°C° 0 mm 2 mps 719 mmHg 65%
07:00 +16°C° 0 mm 2 mps 720 mmHg 63%
08:00 +16°C° 0 mm 2 mps 720 mmHg 62%
09:00 +16°C° 0 mm 2 mps 720 mmHg 61%
10:00 +17°C° 0 mm 2 mps 720 mmHg 60%
11:00 +17°C° 0 mm 2 mps 720 mmHg 59%
12:00 +17°C° 0 mm 2 mps 720 mmHg 59%
13:00 +17°C° 0 mm 2 mps 719 mmHg 59%
14:00 +17°C° 0 mm 2 mps 719 mmHg 58%
15:00 +16°C° 0 mm 2 mps 719 mmHg 60%
16:00 +16°C° 0 mm 2 mps 719 mmHg 62%
17:00 +15°C° 0 mm 1 mps 719 mmHg 64%
18:00 +15°C° 0 mm 2 mps 720 mmHg 66%
19:00 +15°C° 0 mm 2 mps 721 mmHg 69%
20:00 +14°C° 0 mm 2 mps 722 mmHg 72%
21:00 +14°C° 0 mm 2 mps 723 mmHg 74%
22:00 +13°C° 0 mm 3 mps 724 mmHg 76%
23:00 +13°C° 0 mm 3 mps 724 mmHg 78%

3 October, Saturday

Time Temperature Precipitation Wind Pressure Humidity
00:00 +12°C° 0.1 mm 3 mps 724 mmHg 82%
01:00 +12°C° 0.1 mm 3 mps 724 mmHg 86%
02:00 +12°C° 0.1 mm 3 mps 724 mmHg 89%
03:00 +12°C° 0 mm 2 mps 724 mmHg 89%
04:00 +12°C° 0 mm 2 mps 724 mmHg 89%
05:00 +12°C° 0 mm 2 mps 724 mmHg 88%
06:00 +12°C° 0 mm 2 mps 724 mmHg 87%
07:00 +12°C° 0 mm 2 mps 724 mmHg 85%
08:00 +12°C° 0 mm 2 mps 725 mmHg 83%
09:00 +13°C° 0 mm 2 mps 724 mmHg 79%
10:00 +13°C° 0 mm 2 mps 724 mmHg 75%
11:00 +13°C° 0 mm 2 mps 724 mmHg 70%
12:00 +15°C° 0 mm 2 mps 723 mmHg 64%
13:00 +16°C° 0 mm 2 mps 723 mmHg 58%
14:00 +18°C° 0 mm 1 mps 722 mmHg 52%
15:00 +17°C° 0 mm 2 mps 722 mmHg 53%
16:00 +17°C° 0 mm 2 mps 722 mmHg 53%
17:00 +17°C° 0 mm 2 mps 722 mmHg 54%
18:00 +16°C° 0 mm 2 mps 722 mmHg 56%
19:00 +15°C° 0 mm 2 mps 723 mmHg 59%
20:00 +14°C° 0 mm 2 mps 724 mmHg 62%
21:00 +12°C° 0 mm 2 mps 724 mmHg 65%
22:00 +11°C° 0 mm 1 mps 725 mmHg 68%
23:00 +9°C° 0 mm 1 mps 725 mmHg 71%

4 October, Sunday

Time Temperature Precipitation Wind Pressure Humidity
00:00 +9°C° 0 mm 1 mps 725 mmHg 70%
01:00 +9°C° 0 mm 1 mps 725 mmHg 70%
02:00 +8°C° 0 mm 1 mps 725 mmHg 69%
03:00 +8°C° 0 mm 1 mps 725 mmHg 69%
04:00 +8°C° 0 mm 1 mps 724 mmHg 69%
05:00 +8°C° 0 mm 1 mps 724 mmHg 69%
06:00 +9°C° 0 mm 1 mps 724 mmHg 65%
07:00 +10°C° 0 mm 1 mps 725 mmHg 60%
08:00 +11°C° 0 mm 1 mps 725 mmHg 56%
09:00 +13°C° 0 mm 1 mps 724 mmHg 50%
10:00 +16°C° 0 mm 2 mps 724 mmHg 44%
11:00 +18°C° 0 mm 2 mps 724 mmHg 38%
12:00 +20°C° 0 mm 2 mps 723 mmHg 36%
13:00 +21°C° 0 mm 3 mps 722 mmHg 34%
14:00 +22°C° 0 mm 3 mps 721 mmHg 33%
15:00 +22°C° 0 mm 3 mps 720 mmHg 35%
16:00 +21°C° 0 mm 3 mps 720 mmHg 38%
17:00 +20°C° 0 mm 3 mps 719 mmHg 41%
18:00 +18°C° 0 mm 3 mps 720 mmHg 53%
19:00 +15°C° 0 mm 2 mps 720 mmHg 65%
20:00 +13°C° 0 mm 1 mps 720 mmHg 77%
21:00 +12°C° 0 mm 1 mps 720 mmHg 79%
22:00 +12°C° 0 mm 1 mps 721 mmHg 82%
23:00 +10°C° 0 mm 0 mps 721 mmHg 84%
Show more

We Need Your Consent

Meteoprog and our Service Providers may store and access personal data such as cookies, device identifiers or other similar technologies on your device and process such data to personalise content and ads, as well as provide social media features and to analyse the traffic.

  • Store and/or access information on your device

    Cookies, device identifiers or other information can be stored or accessed on your device for the purposes indicated above.

  • Personalised ads and content, ad and content measurement, audience insights, and products development

    Ads and content can be personalised based on a profile. More data can be added to better personalise ads and content. Ad and content performance can be measured. Insights about the audience who saw the ads and content can be derived. Such data can be used to develop or improve user’s experience, systems and software.

By clicking ‘I Agree’ you will allow the use of indicated cookies, device identifiers, web beacons or other similar technologies. Your settings can be changed in the browser on your device.

For certain purposes, legitimate interests may be relied on, rather than consent. You can read more about this in our Privacy and Cookie Policy.